(39) Laetitia
ephemeris date magn radius delta ra dec elong phase
Today19 Apr 202511.42.582 AU3.433 AU03h38m+11°28'27.3°10.3°
Opposition27 Jan 202610.02.898 AU1.919 AU08h31m+10°51'172.2°2.6°
(39) Laetitia - 2025-04-19
astro.vanbuitenen.nl


 
-1 year
-1 month
-1 day
Now
+1 day
+1 month
+1 year

The interactive orbit chart above shows the body's path through the solar system and its position at the given date. Green and blue lines are shown perpendicular to the ecliptic plane: Green if the path is above the ecliptic plane, blue if it is below. (Left-click and drag to rotate the view; Right-click and drag to move the view; Use scroll wheel to zoom in our out.)

The orbital elements of Laetitia are:

            e (Eccentricity)                : 0.1124359
            a (Semimajor axis)              : 2.7699264
            i (Inclination)                 : 10.36979
            Ω (Longitude of ascending node) : 156.90359
            ω (Argument of perihelion)      : 210.11595
            M (Mean anomaly)                : 51.11973
            Epoch                           : 2025 May 05

            L (Longitude of perihelion)     : 186.61170
            B (Latitude of perihelion)      : -5.18176
            P (Orbital period in years)     : 4.61            
        

The light curve chart below shows the estimated development of the minor planet's magnitude.


The all-sky chart below shows the path of the minor planet over the same period as the light curve. The current position is marked yellow.





The following chart shows the path of the minor planet in the next few days. The field of view is optimized for (~10x50) binoculars and finderscopes. A more printer-friendly version of the same chart can be found below.




Ephemerides:
Date       Time       RA (2000)    DEC (2000)    delta   radius  elong  phase   PA    magn
2025-04-19 00:00 UT   03 38 32.5   +11 28 42     3.433    2.582   27.3   10.3    92   11.4 
2025-04-19 20:42 UT   03 40 02.1   +11 34 31     3.439    2.583   26.8   10.1    92   11.4 
2025-04-20 00:00 UT   03 40 16.4   +11 35 26     3.440    2.583   26.8   10.1    92   11.4 
2025-04-21 00:00 UT   03 42 00.4   +11 42 07     3.446    2.584   26.3    9.9    93   11.4 
2025-04-22 00:00 UT   03 43 44.5   +11 48 43     3.453    2.585   25.8    9.7    93   11.4 
2025-04-23 00:00 UT   03 45 28.9   +11 55 15     3.459    2.586   25.2    9.5    94   11.4 
2025-04-24 00:00 UT   03 47 13.5   +12 01 43     3.466    2.587   24.7    9.4    94   11.4 
2025-04-25 00:00 UT   03 48 58.2   +12 08 07     3.472    2.588   24.2    9.2    95   11.4 
2025-04-26 00:00 UT   03 50 43.1   +12 14 26     3.478    2.589   23.7    9.0    96   11.3 
2025-04-27 00:00 UT   03 52 28.1   +12 20 40     3.484    2.590   23.2    8.8    96   11.3 
2025-04-28 00:00 UT   03 54 13.4   +12 26 51     3.490    2.591   22.7    8.6    97   11.3 
2025-04-29 00:00 UT   03 55 58.7   +12 32 56     3.496    2.592   22.2    8.5    97   11.3 
2025-04-30 00:00 UT   03 57 44.3   +12 38 57     3.502    2.593   21.7    8.3    98   11.3 
2025-05-01 00:00 UT   03 59 29.9   +12 44 54     3.507    2.594   21.2    8.1    99   11.3 
2025-05-02 00:00 UT   04 01 15.8   +12 50 46     3.513    2.595   20.7    7.9    99   11.3 
2025-05-03 00:00 UT   04 03 01.7   +12 56 33     3.518    2.596   20.3    7.7   100   11.3 
2025-05-04 00:00 UT   04 04 47.8   +13 02 15     3.523    2.597   19.8    7.5   101   11.3 
2025-05-05 00:00 UT   04 06 34.0   +13 07 53     3.528    2.598   19.3    7.4   101   11.3 
2025-05-06 00:00 UT   04 08 20.3   +13 13 26     3.533    2.599   18.8    7.2   102   11.3 
2025-05-07 00:00 UT   04 10 06.8   +13 18 54     3.538    2.600   18.3    7.0   103   11.3 
2025-05-08 00:00 UT   04 11 53.4   +13 24 17     3.543    2.601   17.8    6.8   104   11.3 


    Terminology:
            
    delta:  distance between minor planet and earth in AU
    radius: distance between minor planet and sun in AU
    magn:   magnitude (brightness) estimate    
    ra:     right ascension in hours (24h = 360deg)
    dec:    declination in degrees
    elong:  elongation in degrees (angle sun-earth-minor planet)    
    phase:  phase angle in degrees (angle sun-minor planet-earth)        
    AU:     Astronomical Unit (mean distance between earth and sun: 149597870.7 km
    

Orbital elements provided by the MPC (Minor Planet Center).
Calculations by a modified version of AAPlus, a C# implementation of the AA+ project by PJ Naughter from the algorithms presented in the book "Astronomical Algorithms" by Jean Meeus.
NGC2000 dso catalog and star labels from VizieR as provided by the Strasbourg astronomical Data Center.
Tycho2 catalog from the ESO archive.